Hourly Data Report for December 01, 2019

SATURNA ISLAND CS
BRITISH COLUMBIA
Current Station Operator: ECCC - MSC

48°47'02.067" N
123°02'41.082" W
24.40 m
1017101
71473
WEZ

Download Data

Hourly Data (December 2019)
Hourly Data Report for December 1, 2019
TIME
LST
Temp Definition
°C
Dew Point Definition
°C
Rel Hum Definition
%
Precip. Amount Definition
mm

Wind Dir Definition
10's deg

Wind Spd Definition
km/h
Visibility Definition
km
Stn Press Definition
kPa
Hmdx Definition


Wind Chill Definition


Weather Definition


00:00 3.4 -1.7 69 0.0 1 18   101.14     LegendNANA
01:00 3.5 -2.2 66 0.0 4 16   101.12     LegendNANA
02:00 3.8 -1.0 71 0.0 36 16   101.08     LegendNANA
03:00 3.4 -4.3 57 0.0 6 23   101.07     LegendNANA
04:00 3.5 -3.2 61 0.0 3 14   101.03     LegendNANA
05:00 3.7 -4.2 56 0.0 6 19   101.02     LegendNANA
06:00 3.9 -1.1 69 0.0 34 9   101.01     LegendNANA
07:00 3.9 -2.2 64 0.0 2 16   101.01     LegendNANA
08:00 3.8 -5.0 53 0.0 5 20   101.06     LegendNANA
09:00 3.7 -4.8 54 0.0 4 12   101.13     LegendNANA
10:00 4.2 -3.1 59 0.0 3 17   101.13     LegendNANA
11:00 4.5 -1.7 64 0.0 33 8   101.08     LegendNANA
12:00 4.3 -0.9 69 0.0 34 9   101.13     LegendNANA
13:00 4.7 -0.9 67 0.0 36 13   101.11     LegendNANA
14:00 4.4 -1.2 67 0.0 31 4   101.09     LegendNANA
15:00 4.7 -0.2 71 0.0 33 4   101.12     LegendNANA
16:00 4.6 -0.1 71 0.0 32 3   101.16     LegendNANA
17:00 4.9 -0.9 66 0.0 2 13   101.22     LegendNANA
18:00 5.1 -0.9 65 0.0 36 11   101.27     LegendNANA
19:00 5.0 -1.2 64 0.0 1 13   101.33     LegendNANA
20:00 4.9 -0.6 67 0.0 4 13   101.33     LegendNANA
21:00 4.7 -1.0 67 0.0 5 13   101.37     LegendNANA
22:00 4.3 -0.1 73 0.0 4 11   101.40     LegendNANA
23:00 4.2 0.9 79 0.0 2 11   101.48     LegendNANA

Notes on Data Quality.

Legend

  • E = Estimated
  • M = Missing
  • NA = Not Available*
  • [empty] = Indicates an unobserved value
Date modified: